| time (UTC) | temp F | wind direction | speed knots | gust knots | rain 1hr in | rain 24hr in | rain mn in | humidity % | barometer mb |
| 20260504024252 | 53 | 202 | 0.0 | 0.0 | 0.00 | 0.00 | 0.00 | 44 | 1003.3 |
| 20260504023749 | 53 | 202 | 0.0 | 0.0 | 0.00 | 0.00 | 0.00 | 45 | 1003.2 |
| 20260504023245 | 53 | 202 | 0.0 | 0.0 | 0.00 | 0.00 | 0.00 | 46 | 1003.1 |
| 20260504022741 | 54 | 202 | 0.0 | 0.0 | 0.00 | 0.00 | 0.00 | 45 | 1003.3 |
| 20260504022238 | 54 | 202 | 0.0 | 0.0 | 0.00 | 0.00 | 0.00 | 44 | 1003.4 |
| 20260504021735 | 55 | 202 | 0.0 | 0.0 | 0.00 | 0.00 | 0.00 | 45 | 1003.2 |
| 20260504021232 | 55 | 202 | 0.0 | 0.9 | 0.00 | 0.00 | 0.00 | 43 | 1003.1 |
| 20260504020729 | 56 | 202 | 0.9 | 0.9 | 0.00 | 0.00 | 0.00 | 44 | 1003.2 |
| 20260504020226 | 56 | 202 | 0.9 | 0.9 | 0.00 | 0.00 | 0.00 | 41 | 1003.1 |
| 20260504015722 | 57 | 202 | 0.9 | 0.9 | 0.00 | 0.00 | 0.00 | 41 | 1003.3 |
| 20260504015218 | 57 | 202 | 0.9 | 0.9 | 0.00 | 0.00 | 0.00 | 41 | 1003.2 |
| 20260504014714 | 58 | 202 | 0.9 | 0.9 | 0.00 | 0.00 | 0.00 | 41 | 1003.2 |
| 20260504014211 | 58 | 202 | 0.9 | 0.9 | 0.00 | 0.00 | 0.00 | 40 | 1003.2 |
| 20260504013709 | 59 | 202 | 0.9 | 0.9 | 0.00 | 0.00 | 0.00 | 38 | 1003.3 |
| 20260504013206 | 59 | 203 | 0.0 | 0.0 | 0.00 | 0.00 | 0.00 | 35 | 1003.4 |
| 20260504012702 | 60 | 203 | 0.0 | 0.0 | 0.00 | 0.00 | 0.00 | 37 | 1003.3 |
| 20260504012200 | 60 | 203 | 0.9 | 0.9 | 0.00 | 0.00 | 0.00 | 35 | 1003.3 |
| 20260504011657 | 61 | 228 | 0.0 | 0.9 | 0.00 | 0.00 | 0.00 | 35 | 1003.3 |
| 20260504011153 | 61 | 228 | 0.0 | 0.0 | 0.00 | 0.00 | 0.00 | 33 | 1003.3 |
| 20260504010649 | 62 | 228 | 0.0 | 0.9 | 0.00 | 0.00 | 0.00 | 33 | 1003.2 |
| 20260504010145 | 62 | 229 | 0.0 | 0.9 | 0.00 | 0.00 | 0.00 | 32 | 1003.3 |
| 20260504005643 | 62 | 229 | 0.0 | 0.9 | 0.00 | 0.00 | 0.00 | 32 | 1003.2 |
| 20260504005139 | 63 | 229 | 0.0 | 0.9 | 0.00 | 0.00 | 0.00 | 32 | 1003.4 |
| 20260504004638 | 63 | 229 | 0.0 | 0.9 | 0.00 | 0.00 | 0.00 | 34 | 1003.5 |
| 20260504004134 | 64 | 230 | 0.9 | 1.7 | 0.00 | 0.00 | 0.00 | 35 | 1003.5 |
| 20260504003630 | 64 | 250 | 2.6 | 2.6 | 0.00 | 0.00 | 0.00 | 33 | 1003.6 |
| 20260504003127 | 64 | 225 | 0.9 | 1.7 | 0.00 | 0.00 | 0.00 | 34 | 1003.6 |
| 20260504002624 | 64 | 341 | 1.7 | 2.6 | 0.00 | 0.00 | 0.00 | 32 | 1003.8 |
| 20260504002121 | 64 | 272 | 1.7 | 1.7 | 0.00 | 0.00 | 0.00 | 32 | 1003.7 |
| 20260504001619 | 65 | 278 | 1.7 | 2.6 | 0.00 | 0.00 | 0.00 | 31 | 1003.8 |
| 20260504001115 | 65 | 304 | 0.9 | 1.7 | 0.00 | 0.00 | 0.00 | 29 | 1004.0 |
| 20260504000613 | 65 | 310 | 1.7 | 3.5 | 0.00 | 0.00 | 0.00 | 33 | 1004.1 |
| 20260504000110 | 64 | 333 | 1.7 | 5.2 | 0.00 | 0.00 | 0.00 | 32 | 1003.9 |
| 20260503235608 | 64 | 283 | 2.6 | 3.5 | 0.00 | 0.00 | 0.00 | 33 | 1003.9 |
| 20260503235104 | 65 | 345 | 1.7 | 3.5 | 0.00 | 0.00 | 0.00 | 30 | 1003.8 |
| 20260503234602 | 66 | 311 | 3.5 | 7.0 | 0.00 | 0.00 | 0.00 | 27 | 1004.0 |
| 20260503234100 | 66 | 279 | 5.2 | 7.0 | 0.00 | 0.00 | 0.00 | 28 | 1004.0 |
| 20260503233556 | 66 | 297 | 2.6 | 6.1 | 0.00 | 0.00 | 0.00 | 31 | 1003.9 |
| 20260503233052 | 66 | 222 | 5.2 | 8.7 | 0.00 | 0.00 | 0.00 | 28 | 1004.0 |
| 20260503232550 | 66 | 263 | 4.3 | 7.8 | 0.00 | 0.00 | 0.00 | 26 | 1003.8 |
| 20260503232047 | 66 | 313 | 5.2 | 7.0 | 0.00 | 0.00 | 0.00 | 28 | 1004.1 |
| 20260503231545 | 66 | 170 | 6.1 | 7.8 | 0.00 | 0.00 | 0.00 | 29 | 1004.1 |
| 20260503231041 | 66 | 245 | 7.8 | 8.7 | 0.00 | 0.00 | 0.00 | 32 | 1004.1 |
| 20260503230538 | 66 | 249 | 7.0 | 7.8 | 0.00 | 0.00 | 0.00 | 28 | 1004.1 |
| 20260503230036 | 66 | 296 | 6.1 | 11.3 | 0.00 | 0.00 | 0.00 | 30 | 1004.2 |
| 20260503225532 | 66 | 265 | 7.8 | 12.2 | 0.00 | 0.00 | 0.00 | 30 | 1004.0 |
| 20260503225027 | 66 | 49 | 5.2 | 6.1 | 0.00 | 0.00 | 0.00 | 29 | 1004.0 |
| 20260503224525 | 66 | 253 | 6.1 | 12.2 | 0.00 | 0.00 | 0.00 | 31 | 1003.9 |
| 20260503224023 | 66 | 282 | 3.5 | 5.2 | 0.00 | 0.00 | 0.00 | 29 | 1004.1 |
| 20260503223520 | 66 | 255 | 7.0 | 9.6 | 0.00 | 0.00 | 0.00 | 32 | 1004.0 |
| 20260503223016 | 66 | 248 | 3.5 | 5.2 | 0.00 | 0.00 | 0.00 | 30 | 1004.1 |
| 20260503222514 | 67 | 253 | 8.7 | 9.6 | 0.00 | 0.00 | 0.00 | 28 | 1004.0 |
| 20260503222012 | 67 | 318 | 5.2 | 7.8 | 0.00 | 0.00 | 0.00 | 28 | 1004.0 |
| 20260503221510 | 67 | 253 | 6.1 | 7.0 | 0.00 | 0.00 | 0.00 | 28 | 1003.8 |
| 20260503221007 | 68 | 310 | 4.3 | 6.1 | 0.00 | 0.00 | 0.00 | 27 | 1003.9 |
| 20260503220503 | 68 | 288 | 3.5 | 5.2 | 0.00 | 0.00 | 0.00 | 30 | 1004.0 |
| 20260503220000 | 67 | 300 | 3.5 | 7.0 | 0.00 | 0.00 | 0.00 | 28 | 1003.9 |
| 20260503215457 | 67 | 247 | 2.6 | 7.0 | 0.00 | 0.00 | 0.00 | 29 | 1003.9 |
| 20260503214954 | 67 | 262 | 5.2 | 7.0 | 0.00 | 0.00 | 0.00 | 27 | 1004.0 |
| 20260503214452 | 67 | 318 | 7.0 | 9.6 | 0.00 | 0.00 | 0.00 | 27 | 1003.9 |
| 20260503213949 | 67 | 239 | 6.1 | 9.6 | 0.00 | 0.00 | 0.00 | 26 | 1004.1 |
| 20260503213447 | 67 | 332 | 4.3 | 7.0 | 0.00 | 0.00 | 0.00 | 28 | 1004.1 |
| 20260503212943 | 68 | 330 | 5.2 | 7.8 | 0.00 | 0.00 | 0.00 | 26 | 1004.2 |
| 20260503212441 | 67 | 310 | 4.3 | 6.1 | 0.00 | 0.00 | 0.00 | 27 | 1004.2 |
| 20260503211938 | 66 | 311 | 3.5 | 5.2 | 0.00 | 0.00 | 0.00 | 25 | 1004.3 |
| 20260503211435 | 67 | 246 | 4.3 | 13.0 | 0.00 | 0.00 | 0.00 | 29 | 1004.1 |
| 20260503210930 | 67 | 244 | 6.1 | 7.8 | 0.00 | 0.00 | 0.00 | 27 | 1004.1 |
| 20260503210427 | 67 | 256 | 5.2 | 7.0 | 0.00 | 0.00 | 0.00 | 26 | 1004.3 |
| 20260503205922 | 67 | 343 | 6.1 | 7.0 | 0.00 | 0.00 | 0.00 | 23 | 1004.3 |
| 20260503205420 | 68 | 287 | 5.2 | 7.8 | 0.00 | 0.00 | 0.00 | 24 | 1004.3 |
| 20260503204916 | 68 | 239 | 4.3 | 6.1 | 0.00 | 0.00 | 0.00 | 24 | 1004.6 |
| 20260503204413 | 67 | 325 | 4.3 | 7.0 | 0.00 | 0.00 | 0.00 | 24 | 1004.2 |
| 20260503203910 | 68 | 315 | 6.1 | 7.0 | 0.00 | 0.00 | 0.00 | 25 | 1004.4 |
| 20260503203408 | 67 | 309 | 1.7 | 6.1 | 0.00 | 0.00 | 0.00 | 23 | 1004.3 |
| 20260503202904 | 68 | 311 | 1.7 | 7.8 | 0.00 | 0.00 | 0.00 | 29 | 1004.5 |
| 20260503202403 | 67 | 312 | 6.1 | 8.7 | 0.00 | 0.00 | 0.00 | 26 | 1004.5 |
| 20260503201901 | 68 | 319 | 4.3 | 8.7 | 0.00 | 0.00 | 0.00 | 25 | 1004.5 |
| 20260503201357 | 67 | 172 | 3.5 | 6.1 | 0.00 | 0.00 | 0.00 | 27 | 1004.4 |
| 20260503200855 | 67 | 314 | 3.5 | 6.1 | 0.00 | 0.00 | 0.00 | 25 | 1004.5 |
| 20260503200350 | 68 | 309 | 5.2 | 7.8 | 0.00 | 0.00 | 0.00 | 26 | 1004.5 |
| 20260503195848 | 67 | 293 | 7.0 | 8.7 | 0.00 | 0.00 | 0.00 | 26 | 1004.5 |
| 20260503195344 | 68 | 308 | 5.2 | 8.7 | 0.00 | 0.00 | 0.00 | 26 | 1004.7 |
| 20260503194842 | 67 | 291 | 4.3 | 7.0 | 0.00 | 0.00 | 0.00 | 27 | 1004.7 |
| 20260503194337 | 67 | 297 | 4.3 | 6.1 | 0.00 | 0.00 | 0.00 | 27 | 1004.6 |
| 20260503193834 | 66 | 331 | 4.3 | 6.1 | 0.00 | 0.00 | 0.00 | 27 | 1004.8 |
| 20260503193330 | 67 | 315 | 4.3 | 8.7 | 0.00 | 0.00 | 0.00 | 31 | 1004.5 |
| 20260503192826 | 67 | 290 | 8.7 | 11.3 | 0.00 | 0.00 | 0.00 | 28 | 1004.6 |
| 20260503192322 | 68 | 312 | 7.8 | 8.7 | 0.00 | 0.00 | 0.00 | 30 | 1004.7 |
| 20260503191818 | 67 | 204 | 2.6 | 7.0 | 0.00 | 0.00 | 0.00 | 31 | 1004.8 |
| 20260503191315 | 67 | 94 | 0.9 | 8.7 | 0.00 | 0.00 | 0.00 | 29 | 1004.8 |
| 20260503190812 | 67 | 257 | 3.5 | 6.1 | 0.00 | 0.00 | 0.00 | 34 | 1004.9 |
| 20260503190309 | 67 | 319 | 6.1 | 9.6 | 0.00 | 0.00 | 0.00 | 29 | 1004.8 |
| 20260503185806 | 66 | 166 | 3.5 | 6.1 | 0.00 | 0.00 | 0.00 | 31 | 1005.0 |
| 20260503185304 | 67 | 301 | 7.0 | 9.6 | 0.00 | 0.00 | 0.00 | 33 | 1004.9 |
| 20260503184801 | 67 | 295 | 5.2 | 7.8 | 0.00 | 0.00 | 0.00 | 30 | 1005.2 |
| 20260503184258 | 67 | 252 | 1.7 | 5.2 | 0.00 | 0.00 | 0.00 | 36 | 1005.0 |
| 20260503183754 | 66 | 325 | 5.2 | 7.0 | 0.00 | 0.00 | 0.00 | 34 | 1005.2 |
| 20260503183252 | 65 | 23 | 1.7 | 7.8 | 0.00 | 0.00 | 0.00 | 31 | 1005.3 |
| 20260503182749 | 66 | 338 | 6.1 | 8.7 | 0.00 | 0.00 | 0.00 | 34 | 1005.4 |
| 20260503182248 | 66 | 259 | 5.2 | 8.7 | 0.00 | 0.00 | 0.00 | 32 | 1005.0 |
| 20260503181744 | 66 | 259 | 7.8 | 11.3 | 0.00 | 0.00 | 0.00 | 37 | 1005.0 |
| 20260503181242 | 66 | 294 | 2.6 | 6.1 | 0.00 | 0.00 | 0.00 | 35 | 1005.4 |
| 20260503180738 | 66 | 279 | 6.1 | 9.6 | 0.00 | 0.00 | 0.00 | 35 | 1005.3 |
| 20260503180236 | 66 | 300 | 4.3 | 7.0 | 0.00 | 0.00 | 0.00 | 39 | 1005.3 |
| 20260503175732 | 67 | 285 | 6.1 | 7.8 | 0.00 | 0.00 | 0.00 | 38 | 1005.3 |
| 20260503175231 | 66 | 339 | 0.9 | 2.6 | 0.00 | 0.00 | 0.00 | 37 | 1005.4 |
| 20260503174726 | 66 | 334 | 3.5 | 7.0 | 0.00 | 0.00 | 0.00 | 39 | 1005.4 |
| 20260503174225 | 65 | 336 | 4.3 | 7.8 | 0.00 | 0.00 | 0.00 | 36 | 1005.3 |
| 20260503173725 | 65 | 284 | 3.5 | 5.2 | 0.00 | 0.00 | 0.00 | 38 | 1005.4 |
| 20260503173221 | 65 | 297 | 6.1 | 7.8 | 0.00 | 0.00 | 0.00 | 39 | 1005.4 |
| 20260503172718 | 66 | 334 | 3.5 | 8.7 | 0.00 | 0.00 | 0.00 | 38 | 1005.5 |
| 20260503172215 | 66 | 289 | 2.6 | 7.0 | 0.00 | 0.00 | 0.00 | 40 | 1005.5 |
| 20260503171711 | 65 | 22 | 1.7 | 5.2 | 0.00 | 0.00 | 0.00 | 39 | 1005.6 |
| 20260503171209 | 65 | 292 | 3.5 | 7.0 | 0.00 | 0.00 | 0.00 | 43 | 1005.5 |
| 20260503170705 | 65 | 324 | 6.1 | 7.0 | 0.00 | 0.00 | 0.00 | 42 | 1005.5 |
| 20260503170203 | 65 | 307 | 4.3 | 11.3 | 0.00 | 0.00 | 0.00 | 42 | 1005.5 |
| 20260503160124 | 63 | 278 | 4.3 | 6.1 | 0.00 | 0.00 | 0.00 | 46 | 1005.7 |
| 20260503150554 | 60 | 313 | 4.3 | 5.2 | 0.00 | 0.00 | 0.00 | 47 | 1005.4 |
| 20260503130944 | 55 | 179 | 2.6 | 3.5 | 0.00 | 0.00 | 0.00 | 54 | 1005.4 |
| 20260503130441 | 55 | 157 | 0.9 | 0.9 | 0.00 | 0.00 | 0.00 | 58 | 1005.7 |
| 20260503110338 | 50 | 146 | 0.9 | 0.9 | 0.00 | 0.00 | 0.00 | 66 | 1004.9 |
| 20260503090224 | 50 | 119 | 1.7 | 2.6 | 0.00 | 0.00 | 0.00 | 77 | 1005.7 |
| 20260503081150 | 51 | 247 | 1.7 | 1.7 | 0.00 | 0.00 | 0.00 | 63 | 1006.8 |
| 20260503080646 | 51 | 119 | 0.9 | 0.9 | 0.00 | 0.00 | 0.00 | 64 | 1006.3 |
| 20260503080143 | 51 | 119 | 0.0 | 0.9 | 0.00 | 0.00 | 0.00 | 64 | 1006.4 |
| 20260503072620 | 52 | 88 | 0.9 | 0.9 | 0.00 | 0.00 | 0.00 | 64 | 1006.9 |
| 20260503072117 | 52 | 88 | 0.0 | 0.0 | 0.00 | 0.00 | 0.00 | 61 | 1007.1 |
| 20260503071614 | 53 | 88 | 0.0 | 0.0 | 0.00 | 0.00 | 0.00 | 59 | 1007.0 |
| 20260503071111 | 53 | 88 | 0.0 | 0.9 | 0.00 | 0.00 | 0.00 | 60 | 1006.9 |
| 20260503070608 | 53 | 113 | 0.0 | 1.7 | 0.00 | 0.00 | 0.00 | 60 | 1006.9 |
| 20260503070106 | 53 | 113 | 0.9 | 0.9 | 0.00 | 0.00 | 0.00 | 60 | 1006.9 |
| 20260503055032 | 54 | 117 | 1.7 | 1.7 | 0.00 | 0.00 | 0.00 | 59 | 1007.5 |
| 20260503054528 | 54 | 109 | 1.7 | 1.7 | 0.00 | 0.00 | 0.00 | 58 | 1007.5 |
| 20260503054025 | 54 | 96 | 0.9 | 1.7 | 0.00 | 0.00 | 0.00 | 58 | 1007.4 |
| 20260503053523 | 54 | 123 | 1.7 | 1.7 | 0.00 | 0.00 | 0.00 | 59 | 1007.5 |
| 20260503053021 | 54 | 122 | 1.7 | 1.7 | 0.00 | 0.00 | 0.00 | 58 | 1007.6 |
| 20260503052517 | 54 | 146 | 2.6 | 2.6 | 0.00 | 0.00 | 0.00 | 61 | 1008.0 |
| 20260503052013 | 54 | 97 | 1.7 | 1.7 | 0.00 | 0.00 | 0.00 | 58 | 1008.0 |
| 20260503051509 | 54 | 116 | 0.9 | 1.7 | 0.00 | 0.00 | 0.00 | 59 | 1008.1 |
| 20260503051007 | 54 | 145 | 1.7 | 1.7 | 0.00 | 0.00 | 0.00 | 60 | 1008.2 |
| 20260503050502 | 54 | 119 | 0.9 | 1.7 | 0.00 | 0.00 | 0.00 | 57 | 1008.4 |
| 20260503050000 | 55 | 108 | 0.9 | 0.9 | 0.00 | 0.00 | 0.00 | 56 | 1008.3 |
| 20260503045457 | 55 | 117 | 0.9 | 0.9 | 0.00 | 0.00 | 0.00 | 56 | 1008.4 |
| 20260503044954 | 55 | 82 | 0.9 | 0.9 | 0.00 | 0.00 | 0.00 | 55 | 1008.5 |
| 20260503044451 | 56 | 101 | 0.9 | 0.9 | 0.00 | 0.00 | 0.00 | 53 | 1008.6 |
| 20260503043948 | 56 | 102 | 0.9 | 0.9 | 0.00 | 0.00 | 0.00 | 53 | 1008.5 |
| 20260503043444 | 56 | 118 | 0.0 | 0.9 | 0.00 | 0.00 | 0.00 | 52 | 1008.6 |
| 20260503042941 | 57 | 132 | 0.9 | 1.7 | 0.00 | 0.00 | 0.00 | 52 | 1008.7 |
| 20260503042437 | 57 | 106 | 0.0 | 0.9 | 0.00 | 0.00 | 0.00 | 51 | 1008.6 |
| 20260503041935 | 58 | 281 | 1.7 | 5.2 | 0.00 | 0.00 | 0.00 | 53 | 1008.8 |
| 20260503041431 | 58 | 247 | 2.6 | 3.5 | 0.00 | 0.00 | 0.00 | 50 | 1008.7 |
| 20260503040929 | 58 | 193 | 1.7 | 5.2 | 0.00 | 0.00 | 0.00 | 48 | 1009.0 |
| 20260503040426 | 58 | 270 | 1.7 | 2.6 | 0.00 | 0.00 | 0.00 | 47 | 1009.2 |
| 20260503035923 | 58 | 245 | 3.5 | 3.5 | 0.00 | 0.00 | 0.00 | 47 | 1009.3 |
| 20260503035420 | 58 | 248 | 3.5 | 6.1 | 0.00 | 0.00 | 0.00 | 48 | 1009.3 |
| 20260503034917 | 58 | 306 | 6.1 | 7.8 | 0.00 | 0.00 | 0.00 | 47 | 1009.2 |
| 20260503034415 | 59 | 256 | 2.6 | 5.2 | 0.00 | 0.00 | 0.00 | 47 | 1009.4 |
| 20260503033912 | 58 | 236 | 2.6 | 3.5 | 0.00 | 0.00 | 0.00 | 46 | 1009.3 |
| 20260503033409 | 58 | 168 | 0.9 | 0.9 | 0.00 | 0.00 | 0.00 | 47 | 1009.3 |
| 20260503032907 | 58 | 218 | 1.7 | 1.7 | 0.00 | 0.00 | 0.00 | 46 | 1009.3 |
| 20260503032406 | 58 | 142 | 0.0 | 0.9 | 0.00 | 0.00 | 0.00 | 46 | 1009.3 |
| 20260503031903 | 59 | 141 | 0.0 | 0.0 | 0.00 | 0.00 | 0.00 | 46 | 1009.2 |
| 20260503031400 | 59 | 140 | 0.0 | 0.9 | 0.00 | 0.00 | 0.00 | 46 | 1009.3 |
| 20260503030856 | 59 | 255 | 1.7 | 2.6 | 0.00 | 0.00 | 0.00 | 44 | 1009.3 |
| 20260503030353 | 59 | 210 | 1.7 | 2.6 | 0.00 | 0.00 | 0.00 | 46 | 1009.5 |
| 20260503025849 | 59 | 165 | 0.9 | 1.7 | 0.00 | 0.00 | 0.00 | 46 | 1009.2 |
| 20260503025347 | 59 | 159 | 0.0 | 0.9 | 0.00 | 0.00 | 0.00 | 46 | 1009.4 |
| 20260503024844 | 59 | 171 | 0.0 | 0.9 | 0.00 | 0.00 | 0.00 | 45 | 1009.7 |